TimeCDT,TemperatureF,Dew PointF,Humidity,Sea Level PressureIn,VisibilityMPH,Wind Direction,Wind SpeedMPH,Gust SpeedMPH,PrecipitationIn,Events,Conditions,WindDirDegrees,DateUTC
12:15 AM,33.8,21.2,60,30.02,10.0,WNW,6.9,-,N/A,,Clear,290,2011-10-21 05:15:00
12:35 AM,30.2,21.2,69,30.02,10.0,West,8.1,-,N/A,,Clear,280,2011-10-21 05:35:00
12:55 AM,32.0,21.2,64,30.02,10.0,West,6.9,-,N/A,,Clear,280,2011-10-21 05:55:00
1:15 AM,28.4,21.2,74,30.02,10.0,West,6.9,-,N/A,,Clear,270,2011-10-21 06:15:00
1:35 AM,28.4,21.2,74,30.02,10.0,West,5.8,-,N/A,,Clear,270,2011-10-21 06:35:00
1:55 AM,28.4,21.2,74,30.03,10.0,West,6.9,-,N/A,,Clear,270,2011-10-21 06:55:00
2:15 AM,28.4,21.2,74,30.03,10.0,West,6.9,-,N/A,,Clear,280,2011-10-21 07:15:00
2:35 AM,30.2,21.2,69,30.03,10.0,West,6.9,-,N/A,,Clear,270,2011-10-21 07:35:00
2:55 AM,30.2,21.2,69,30.03,10.0,West,3.5,-,N/A,,Clear,260,2011-10-21 07:55:00
3:15 AM,30.2,21.2,69,30.04,10.0,WSW,3.5,-,N/A,,Clear,240,2011-10-21 08:15:00
3:35 AM,30.2,21.2,69,30.03,10.0,Calm,Calm,-,N/A,,Clear,0,2011-10-21 08:35:00
3:55 AM,28.4,21.2,74,30.04,10.0,West,5.8,-,N/A,,Clear,260,2011-10-21 08:55:00
4:15 AM,28.4,21.2,74,30.04,10.0,West,5.8,-,N/A,,Clear,260,2011-10-21 09:15:00
4:35 AM,28.4,19.4,69,30.04,10.0,WSW,4.6,-,N/A,,Clear,250,2011-10-21 09:35:00
4:55 AM,28.4,19.4,69,30.04,10.0,WSW,6.9,-,N/A,,Clear,250,2011-10-21 09:55:00
5:15 AM,28.4,19.4,69,30.05,10.0,WSW,3.5,-,N/A,,Clear,240,2011-10-21 10:15:00
5:55 AM,28.4,19.4,69,30.05,10.0,Calm,Calm,-,N/A,,Clear,0,2011-10-21 10:55:00
6:15 AM,28.4,21.2,74,30.05,10.0,WSW,3.5,-,N/A,,Clear,240,2011-10-21 11:15:00
6:35 AM,28.4,21.2,74,30.05,10.0,Calm,Calm,-,N/A,,Clear,0,2011-10-21 11:35:00
6:55 AM,26.6,19.4,74,30.05,10.0,Calm,Calm,-,N/A,,Clear,0,2011-10-21 11:55:00
7:15 AM,24.8,19.4,80,30.06,10.0,SW,3.5,-,N/A,,Clear,220,2011-10-21 12:15:00
7:35 AM,26.6,21.2,80,30.06,10.0,SW,5.8,-,N/A,,Clear,220,2011-10-21 12:35:00
7:55 AM,26.6,19.4,74,30.06,10.0,SSW,4.6,-,N/A,,Clear,200,2011-10-21 12:55:00
8:15 AM,26.6,21.2,80,30.06,10.0,SSW,4.6,-,N/A,,Unknown,200,2011-10-21 13:15:00
8:35 AM,28.4,23.0,80,30.07,10.0,Calm,Calm,-,N/A,,Clear,0,2011-10-21 13:35:00
8:55 AM,33.8,24.8,70,30.07,10.0,South,4.6,-,N/A,,Clear,190,2011-10-21 13:55:00
9:15 AM,35.6,26.6,70,30.07,10.0,South,6.9,-,N/A,,Clear,190,2011-10-21 14:15:00
9:35 AM,37.4,26.6,65,30.07,10.0,South,5.8,-,N/A,,Clear,190,2011-10-21 14:35:00
10:15 AM,42.8,26.6,53,30.07,10.0,South,8.1,-,N/A,,Clear,190,2011-10-21 15:15:00
10:35 AM,44.6,26.6,49,30.06,10.0,South,6.9,-,N/A,,Clear,190,2011-10-21 15:35:00
10:55 AM,48.2,26.6,43,30.06,10.0,South,10.4,-,N/A,,Clear,190,2011-10-21 15:55:00
11:15 AM,50.0,26.6,40,30.05,10.0,South,10.4,-,N/A,,Clear,190,2011-10-21 16:15:00
11:35 AM,51.8,26.6,38,30.05,10.0,SSW,11.5,16.1,N/A,,Clear,210,2011-10-21 16:35:00
11:55 AM,55.4,24.8,31,30.05,10.0,South,12.7,17.3,N/A,,Clear,190,2011-10-21 16:55:00
12:15 PM,55.4,24.8,31,30.04,10.0,SSW,12.7,-,N/A,,Clear,200,2011-10-21 17:15:00
12:35 PM,57.2,23.0,27,30.03,10.0,SW,11.5,18.4,N/A,,Clear,220,2011-10-21 17:35:00
12:55 PM,59.0,21.2,23,30.02,10.0,SSW,12.7,20.7,N/A,,Clear,210,2011-10-21 17:55:00
1:15 PM,60.8,21.2,22,30.02,10.0,SSW,13.8,-,N/A,,Clear,210,2011-10-21 18:15:00
1:35 PM,62.6,21.2,20,30.01,10.0,SW,15.0,-,N/A,,Clear,230,2011-10-21 18:35:00
1:55 PM,62.6,21.2,20,30.00,10.0,SW,13.8,19.6,N/A,,Clear,220,2011-10-21 18:55:00
2:15 PM,62.6,21.2,20,30.00,10.0,SSW,11.5,17.3,N/A,,Clear,210,2011-10-21 19:15:00
2:35 PM,64.4,21.2,19,29.99,10.0,SSW,9.2,-,N/A,,Clear,210,2011-10-21 19:35:00
2:55 PM,64.4,21.2,19,29.99,10.0,SSW,10.4,-,N/A,,Clear,210,2011-10-21 19:55:00
3:15 PM,64.4,21.2,19,29.99,10.0,SSW,11.5,18.4,N/A,,Clear,210,2011-10-21 20:15:00
3:35 PM,64.4,21.2,19,29.98,10.0,SW,13.8,-,N/A,,Clear,220,2011-10-21 20:35:00
3:55 PM,66.2,21.2,18,29.98,10.0,SW,10.4,-,N/A,,Clear,220,2011-10-21 20:55:00
4:15 PM,66.2,21.2,18,29.98,10.0,SW,10.4,-,N/A,,Clear,230,2011-10-21 21:15:00
4:35 PM,66.2,21.2,18,29.98,10.0,SW,11.5,-,N/A,,Clear,230,2011-10-21 21:35:00
4:55 PM,64.4,21.2,19,29.98,10.0,SW,9.2,-,N/A,,Clear,230,2011-10-21 21:55:00
5:15 PM,64.4,21.2,19,29.99,10.0,WSW,9.2,-,N/A,,Clear,240,2011-10-21 22:15:00
5:35 PM,64.4,23.0,21,29.99,10.0,WSW,6.9,-,N/A,,Clear,250,2011-10-21 22:35:00
5:55 PM,60.8,24.8,25,29.99,10.0,WSW,6.9,-,N/A,,Clear,250,2011-10-21 22:55:00
6:15 PM,57.2,24.8,29,29.99,10.0,West,5.8,-,N/A,,Clear,260,2011-10-21 23:15:00
6:35 PM,55.4,24.8,31,30.00,10.0,WSW,5.8,-,N/A,,Clear,240,2011-10-21 23:35:00
6:55 PM,53.6,26.6,35,30.00,10.0,SW,5.8,-,N/A,,Clear,230,2011-10-21 23:55:00
7:15 PM,55.4,24.8,31,30.00,10.0,SW,4.6,-,N/A,,Clear,220,2011-10-22 00:15:00
7:35 PM,51.8,26.6,38,30.00,10.0,SW,6.9,-,N/A,,Clear,230,2011-10-22 00:35:00
7:55 PM,51.8,26.6,38,30.00,10.0,WSW,8.1,-,N/A,,Clear,240,2011-10-22 00:55:00
8:15 PM,51.8,26.6,38,30.01,10.0,WSW,6.9,-,N/A,,Clear,240,2011-10-22 01:15:00
8:35 PM,48.2,26.6,43,30.01,10.0,WSW,5.8,-,N/A,,Clear,250,2011-10-22 01:35:00
8:55 PM,48.2,26.6,43,30.01,10.0,WSW,5.8,-,N/A,,Clear,250,2011-10-22 01:55:00
9:15 PM,46.4,26.6,46,30.01,10.0,West,8.1,-,N/A,,Clear,260,2011-10-22 02:15:00
9:35 PM,46.4,28.4,50,30.01,10.0,West,8.1,-,N/A,,Clear,260,2011-10-22 02:35:00
10:15 PM,44.6,28.4,53,30.01,10.0,West,9.2,-,N/A,,Clear,260,2011-10-22 03:15:00
10:35 PM,46.4,28.4,50,30.02,10.0,WNW,8.1,-,N/A,,Clear,290,2011-10-22 03:35:00
10:55 PM,50.0,30.2,47,30.02,10.0,WNW,9.2,-,N/A,,Clear,300,2011-10-22 03:55:00
11:15 PM,48.2,30.2,50,30.02,10.0,NW,8.1,-,N/A,,Clear,320,2011-10-22 04:15:00
11:35 PM,46.4,30.2,53,30.03,10.0,NW,8.1,-,N/A,,Clear,320,2011-10-22 04:35:00
11:55 PM,48.2,30.2,50,30.04,10.0,NW,8.1,-,N/A,,Clear,320,2011-10-22 04:55:00